User: anonymous   Login
Location: Bridgewater
(44.3670°N, 64.5170°W)
Time: 07:52:53
(UTC-03:00)
Language:

OPAL - Orbit

View from above orbital plane
View from above orbital plane
View from above satellite
View from above satellite

Ground track
Ground track

The orbit data is extracted from the following two-line orbital elements,

1 26063U 00004C   17204.57340032 -.00000019 +00000-0 +13559-4 0  9997
2 26063 100.2286 214.9562 0036154 205.0357 154.9071 14.36668663916404
Epoch (UTC): 23 July 2017 13:45:41
Eccentricity: 0.0036154
inclination: 100.2286°
perigee height: 743 km
apogee height: 795 km
right ascension of ascending node: 214.9562°
argument of perigee: 205.0357°
revolutions per day: 14.36668663
mean anomaly at epoch: 154.9071°
orbit number at epoch: 91640

The dashed part of the orbit path shows where the satellite is in the earth's shadow,  

DLR